User: anonymous   Login
Location: Unspecified
(0.0000°N, 0.0000°E)
Time: 01:28:03
(UTC+00:00)
Language:

POPSAT HIP 1 - Orbit

View from above orbital plane
View from above orbital plane
View from above satellite
View from above satellite

Ground track
Ground track

The orbit data is extracted from the following two-line orbital elements,

1 40028U 14033U   17266.53637362  .00000594  00000-0  70093-4 0  9993
2 40028  97.9091 177.7471 0013942 346.7300  13.3549 14.88366536177108
Epoch (UTC): 23 September 2017 12:52:22
Eccentricity: 0.0013942
inclination: 97.9091°
perigee height: 593 km
apogee height: 613 km
right ascension of ascending node: 177.7471°
argument of perigee: 346.7300°
revolutions per day: 14.88366536
mean anomaly at epoch: 13.3549°
orbit number at epoch: 17710

The dashed part of the orbit path shows where the satellite is in the earth's shadow,  

DLR